Weather Roundup
Issued by NWS Chicago, IL

Home | Current Version | Previous Version | Text Only | Print | Product List | Glossary Off
Versions: 1 2 3 4 5 6 7 8 9 10 11 12 13 14 15 16 17 18 19 20 21 22 23 24 25 26 27 28 29 30 31 32 33 34 35 36 37 38 39 40 41 42 43 44 45 46 47 48 49 50

000
NZUS59 KLOT 260602
HRRLOT

CHICAGO AREA WEATHER ROUNDUP
NATIONAL WEATHER SERVICE CHICAGO/ROMEOVILLE IL
100 AM CDT SUN APR 26 2015

NOTE: "FAIR" INDICATES FEW OR NO CLOUDS BELOW 12,000 FEET WITH NO
SIGNIFICANT WEATHER AND/OR OBSTRUCTIONS TO VISIBILITY.

* THESE STATIONS ARE NOT UNDER NWS QUALITY CONTROL. THEY ALSO MAY NOT
  REPORT WEATHER SUCH AS PRECIPITATION OR FOG.

ILZ005-006-012>014-019>023-260700-
NORTHEAST ILLINOIS

CITY           SKY/WX    TMP DP  RH WIND       PRES   REMARKS
OHARE          CLEAR     39  30  70 N8        29.87R
6HR MIN TEMP:  39; 6HR MAX TEMP:  42;

MIDWAY         PTCLDY    42  33  70 N10       29.86R
6HR MIN TEMP:  40; 6HR MAX TEMP:  46; 6HR PCP: TRACE;

AURORA         MOCLDY    39  27  62 N10       29.88R
6HR MIN TEMP:  36; 6HR MAX TEMP:  46;

LANSING*       CLEAR     39  32  78 CALM      29.86R
WAUKEGAN       CLEAR     37  28  70 N5        29.88R
6HR MIN TEMP:  37; 6HR MAX TEMP:  41;

DUPAGE AIRPORT CLEAR     37  28  70 N8        29.87R
6HR MIN TEMP:  37; 6HR MAX TEMP:  44;

WHEELING       CLEAR     39  29  67 N6        29.89R
6HR MIN TEMP:  39; 6HR MAX TEMP:  42;

NORTHERLY IS     N/A     41  35  79 N13         N/A
$$

WIZ051-052-058>065-066-070>072-260700-
SOUTHEAST WISCONSIN

CITY           SKY/WX    TMP DP  RH WIND       PRES   REMARKS
MILWAUKEE      CLEAR     39  30  70 N13       29.91R
6HR MIN TEMP:  39; 6HR MAX TEMP:  42;

KENOSHA*       CLEAR     37  28  70 N7        29.89R
RACINE*        CLEAR     38  30  73 N9        29.91R
$$

INZ001>003-010>013-019-020-260700-
NORTHWEST INDIANA

CITY           SKY/WX    TMP DP  RH WIND       PRES   REMARKS
GARY*          NOT AVBL
MICHIGAN CITY* NOT AVBL
RENSSELAER*    NOT AVBL
$$

LMZ740>746-260700-
SOUTHERN LAKE MICHIGAN

STATION/POSITION TIME  SKY/WX   TEMP WIND        PRES    VSBY
                                AIR  DIR/SP/G
                 (UTC)          (F)  (DEG/KT/KT) (MB)    (MI)
HARRISON CRIB    0500            40  360/ 18/ 20   N/A
BURNHAM HARBOR   0500            41  350/  8/ 14   N/A
CALUMET HARBOR   0500            40  340/  9/ 13   N/A
BURNS HARBOR     0500            41   50/  6/  9 1011.2R
MICHIGAN CITY    0500            40   20/  7/  8   N/A
$$

ABBREVIATIONS USED IN REMARKS
   TC - TEMPERATURE IN CELSIUS
  WCI - WIND CHILL INDEX
   HX - HEAT INDEX
  VSB - VISIBILITY
$$



USA.gov is the U.S. government's official web portal to all federal, state and local government web resources and services.